Weather History for KGSH - April, 2014

Change the Weather History Date:

Monday, April 7, 2014

  Actual Average Record
Temperature  
Mean Temperature 46 °F -  
Max Temperature 57 °F 56 °F 80 °F (1954)
Min Temperature 36 °F 34 °F 1 °F (1982)
Degree Days  
Heating Degree Days 18    
Moisture  
Dew Point 33 °F    
Average Humidity 69    
Maximum Humidity 92    
Minimum Humidity 30    
Precipitation  
Precipitation 0.39 in - - ()
Sea Level Pressure  
Sea Level Pressure 29.74 in    
Wind  
Wind Speed 7 mph (NE)    
Max Wind Speed 15 mph    
Max Gust Speed 18 mph    
Visibility 8 miles    
Events Rain    
Averages and records for this station are not official NWS values.
T = Trace of Precipitation, MM = Missing Value Source: NWS Daily Summary

Daily Weather History Graph

Daily Weather History Graph

Search for Another Location

Airport or City:

Trip Planner

Search our weather history database for the weather conditions in past years. The results will help you decide how hot, cold, wet, or windy it might be!

Date:

Astronomy

Apr. 07, 2014 Rise Set
Actual Time 7:16 AM EDT 8:14 PM EDT
Civil Twilight 6:47 AM EDT 8:43 PM EDT
Nautical Twilight 6:14 AM EDT 9:17 PM EDT
Astronomical Twilight 5:39 AM EDT 9:52 PM EDT
Moon 1:09 PM EDT (4/7) 2:53 AM EDT (4/7)
Length of Visible Light 13h 55m
Length of Day
12h 58m
First Quarter, 53% of the Moon is Illuminated
Apr 7
First Quarter
Apr 15
Full
Apr 22
Last Quarter
Apr 29
New
May 6
First Quarter

Hourly Weather History & Observations

Time (EDT) Temp. Windchill Dew Point Humidity Pressure Visibility Wind Dir Wind Speed Gust Speed Precip Events Conditions
12:53 AM 37.9 °F 34.4 °F 30.0 °F 73% 29.98 in 10.0 mi East 4.6 mph - N/A   Clear
1:53 AM 39.0 °F 36.8 °F 30.0 °F 70% 29.96 in 10.0 mi East 3.5 mph - N/A   Clear
2:53 AM 37.9 °F 35.5 °F 30.0 °F 73% 29.94 in 10.0 mi NNE 3.5 mph - N/A   Clear
3:53 AM 36.0 °F 30.3 °F 28.9 °F 76% 29.90 in 10.0 mi East 6.9 mph - N/A   Clear
4:53 AM 36.0 °F 32.1 °F 28.0 °F 73% 29.86 in 10.0 mi ENE 4.6 mph - N/A   Clear
5:53 AM 37.0 °F 31.0 °F 28.9 °F 73% 29.85 in 10.0 mi East 8.1 mph - N/A   Clear
6:53 AM 37.9 °F - 28.9 °F 70% 29.85 in 10.0 mi Calm Calm - N/A   Clear
7:53 AM 39.0 °F 36.8 °F 28.9 °F 67% 29.85 in 10.0 mi NE 3.5 mph - N/A   Clear
8:53 AM 39.0 °F 34.0 °F 28.9 °F 67% 29.85 in 10.0 mi NE 6.9 mph - N/A   Clear
9:53 AM 41.0 °F 36.4 °F 28.9 °F 62% 29.82 in 10.0 mi NE 6.9 mph - N/A   Mostly Cloudy
10:53 AM 46.0 °F 40.2 °F 30.0 °F 54% 29.76 in 10.0 mi ENE 12.7 mph - N/A   Mostly Cloudy
11:53 AM 52.0 °F - 28.9 °F 41% 29.73 in 10.0 mi ENE 11.5 mph 18.4 mph N/A   Mostly Cloudy
12:53 PM 55.0 °F - 28.0 °F 35% 29.67 in 10.0 mi ENE 13.8 mph - N/A   Mostly Cloudy
1:53 PM 57.0 °F - 30.0 °F 36% 29.63 in 10.0 mi NE 10.4 mph - N/A   Overcast
2:53 PM 57.0 °F - 26.1 °F 30% 29.60 in 10.0 mi ENE 12.7 mph - N/A   Overcast
4:53 PM 46.9 °F - 39.0 °F 74% 29.60 in 4.0 mi NNE 15.0 mph - 0.10 in Rain Rain
5:53 PM 46.0 °F 40.6 °F 39.0 °F 76% 29.60 in 7.0 mi NNE 11.5 mph - 0.05 in Rain Light Rain
6:53 PM 44.1 °F 37.7 °F 39.0 °F 82% 29.60 in 5.0 mi NNE 12.7 mph - 0.05 in Rain Light Rain
7:53 PM 43.0 °F 37.2 °F 39.9 °F 89% 29.59 in 4.0 mi North 10.4 mph - 0.07 in Rain Light Rain
8:53 PM 43.0 °F 37.2 °F 39.9 °F 89% 29.59 in 4.0 mi North 10.4 mph - 0.08 in Rain Light Rain
9:53 PM 43.0 °F 38.2 °F 39.9 °F 89% 29.58 in 4.0 mi North 8.1 mph - 0.04 in Rain Light Rain
10:53 PM 43.0 °F 38.8 °F 39.9 °F 89% 29.58 in 6.0 mi NW 6.9 mph - 0.00 in Rain Light Rain
11:53 PM 42.1 °F 37.7 °F 39.9 °F 92% 29.58 in 5.0 mi WNW 6.9 mph - 0.00 in   Overcast